STARLINK-32313, 61527

Orbit data source: Space-Track

STARLINK-32313, 61527 is a payload satellite owned by SpaceX/Seattle (US) in LEO that was launched on Tue, 15 Oct 2024 UTC via an FALCON 9 launch vehicle from the Air Force Eastern Test Range (AFETR). Payload-class satellites include a variety of spacecraft equipped with specific instruments for various scientific and technological missions. These include communications satellites like Starlink; space stations such as the ISS; scientific satellites like the Hubble; Earth observation satellites from companies like Planet Labs, Umbra, and HawkEye 360; GPS; miniature CubeSats for education and research; and military/defense satellites.

Loading next visibility...
Identifier
61527, 2024-183U
Orbit
LEO
Country
Flag of USUS
Related business
Manufacturer
SpaceX/Seattle
Mission
Operational Commercial Communications
Bus & Motor
STARLINK V2M, Unknown motor
Mass
730 kg wet, ~700 kg dry
Launch date (UTC)
2024-10-15 (1 year ago)
Launch vehicle
FALCON 9
Launch site
Air Force Eastern Test Range (AFETR)
Object type
Payload
Rocket body
Debris
Shape & HBR
Box + 2 Pan, 17.7 m
Radar Cross Section
33.884 m², Large (>1 m²)

Expand to show TLE details & history
Last TLE update: 14 hours ago

TLE from 14 hours ago
0 STARLINK-32313
1 61527U 24183U   25346.85396759 -.00000784  00000-0 -14343-4 0  9991
2 61527  53.1592 186.0560 0001449 102.4843 257.6320 15.30182316 66359
Epoch: 2025-12-12T20:29Z
TLE epoch observation values (Epoch: 2025-12-12T20:29:42.799Z)
Latitude
-0.00003°
Longitude
156.83803°
Altitude
476.38 km
Speed
7.629 km/s
True Right ascension
12h 24m 13s
True Declination
0° 00' 00"
Sunlit
Object was in daylight at epoch
Visualization orbit readout
Latitude
Unknown
Longitude
Unknown
Altitude
Unknown
Speed
Unknown
Apparent Right ascension
Unknown
Apparent Declination
Unknown
Sunlit
N/A
Visualization observer readout
Local Sidereal Time
09:19:33
Azimuth
Unknown
Elevation
Unknown
Doppler factor
Unknown
Orbital elements
Apogee altitude
476.518 km
Perigee altitude
474.531 km
Semi-major axis
6,853.661 km
Eccentricity
0.00014
Inclination
53.1592°
RAAN
186.056°
Arg. of periapsis
102.4843°
True anomaly
257.61578°
Mean anomaly
257.632°
Eccentric anomaly
257.62389°
Mean motion
3.82524 °/min
Orbital period
94.11 mins
BSTAR
-0.000014343
Loading maneuver chart data...
Computing Atmospheric mass density...
Loading historical data...
Loading historical data...
Loading historical data...
Loading historical data...
Loading historical data...
Loading historical data...
Loading historical data...

Documentation

Showing up to 5 results
|